This demonstration page uses our WeatherBlox Daily Observations layout. Learn more.

39.29038, -76.61219

Hourly Observations for July 6, 2016

Temp ( °F °C ) Dew Point ( °F °C ) Humidity (%) Winds ( mph kmh ) Pressure ( in mb ) Visibility ( mi km ) Precip ( " mm )
12:54 am 00:54 undefined 80 26.7 70 21.1 71 71 undefined N/A 29.87 1011 N/A 0 0
1:54 am 01:54 undefined 79 26.1 70 21.1 74 74 undefined N/A 29.86 1011 N/A 0 0
2:54 am 02:54 undefined 77 25 70 21.1 79 79 undefined N/A 29.86 1011 N/A 0 0
3:54 am 03:54 undefined 77 25 69 20.6 77 77 undefined N/A 29.86 1011 N/A 0 0
4:54 am 04:54 undefined 77 25 69 20.6 77 77 undefined N/A 29.87 1012 N/A 0 0
5:54 am 05:54 undefined 77 25 69 20.6 77 77 undefined N/A 29.89 1012 N/A 0 0
6:54 am 06:54 undefined 80 26.7 69 20.6 69 69 undefined N/A 29.91 1013 N/A 0 0
7:54 am 07:54 undefined 81 27.2 70 21.1 69 69 undefined N/A 29.89 1012 N/A 0 0
8:54 am 08:54 undefined 84 28.9 69 20.6 61 61 undefined N/A 29.9 1013 N/A 0 0
9:54 am 09:54 undefined 85 29.4 68 20 57 57 undefined N/A 29.9 1013 N/A 0 0
10:54 am 10:54 undefined 88 31.1 68 20 52 52 undefined N/A 29.9 1012 N/A 0 0
11:54 am 11:54 undefined 88 31.1 68 20 52 52 undefined N/A 29.9 1013 N/A 0 0
12:54 pm 12:54 undefined 88 31.1 68 20 52 52 undefined N/A 29.89 1012 N/A 0 0
1:54 pm 13:54 undefined 89 31.7 70 21.1 53 53 undefined N/A 29.87 1012 N/A 0 0
2:54 pm 14:54 undefined 89 31.7 70 21.1 53 53 undefined N/A 29.86 1011 N/A 0 0
3:54 pm 15:54 undefined 89 31.7 70 21.1 53 53 undefined N/A 29.84 1011 N/A 0 0
4:54 pm 16:54 undefined 89 31.7 70 21.1 53 53 undefined N/A 29.83 1010 N/A 0 0
5:54 pm 17:54 undefined 89 31.7 70 21.1 53 53 undefined N/A 29.82 1010 N/A 0 0
6:54 pm 18:54 undefined 88 31.1 70 21.1 55 55 undefined N/A 29.83 1010 N/A 0 0
7:54 pm 19:54 undefined 88 31.1 70 21.1 55 55 undefined N/A 29.82 1010 N/A 0 0
8:54 pm 20:54 undefined 87 30.6 72 22.2 61 61 undefined N/A 29.83 1010 N/A 0 0
9:54 pm 21:54 undefined 85 29.4 72 22.2 65 65 undefined N/A 29.84 1011 N/A 0 0
10:54 pm 22:54 undefined 84 28.9 73 22.8 70 70 undefined N/A 29.85 1011 N/A 0 0
11:54 pm 23:54 undefined 82 27.8 72 22.2 72 72 undefined N/A 29.85 1011 N/A 0 0

Powered by AerisWeather